Location: Brunembert
(50.7122°N, 1.8935°E)
Time: 04:36:42
(UTC+00:00)

Cosmos 1553 Rocket - Pass Details

Date: 22 April 2021
Orbit: 942 x 1007 km, 82.9° (Epoch: 06 May)

Event Time Altitude Azimuth Distance (km) Brightness Sun altitude
Exits shadow 22:33:03 34° 219° (SW) 1,513 4.7 -24.5°
Maximum altitude 22:35:40 60° 284° (WNW) 1,079 4.3 -24.7°
Drops below altitude 10° 22:41:43 10° 4° (N) 2,690 7.2 -25.0°
Sets 22:44:17 0° 8° (N) 3,647 8.0 -25.1°
